Location: Unspecified
(0.0000°N, 0.0000°E)
Time: 10:19:41
(UTC+00:00)

AO-7 - Pass Details

Date: 01 October 2021
Orbit: 1439 x 1459 km, 101.9° (Epoch: 23 October)

Event Time Altitude Azimuth Distance (km) Brightness Sun altitude
Rises 03:57:56 0° 11° (N) 4,519 ? -27.9°
Reaches altitude 10° 04:00:43 10° 9° (N) 3,542 ? -27.2°
Maximum altitude 04:08:54 71° 286° (WNW) 1,511 ? -25.2°
Drops below altitude 10° 04:17:08 10° 203° (SSW) 3,553 ? -23.1°
Sets 04:19:56 0° 201° (SSW) 4,534 ? -22.4°
